Simultaneous Nadir Overpasses (SNOs) Predictions

Prediction of SNOs between GOES-14 and NOAA-20 Satellite Orbit:

Table of predicted SNOs for the next 14.0 days since TLE Epoch: 9/24/2022
Index Date Time (GOES-14) GOES-14 Lat,Lon NOAA-20 Lat,Lon Distance(km) Time Diff (sec)
1 09/24/2022 08:38:58 0.31,-104.39 1.13,-108.02 413.78 80
2 09/25/2022 08:17:33 0.32,-104.37 0.12,-103.49 100.68 80
3 09/27/2022 20:23:26 -0.31,-104.41 -0.28,-104.27 16.35 80
4 09/30/2022 08:26:30 0.30,-104.37 0.43,-105.02 73.35 80
5 10/01/2022 08:05:04 0.31,-104.35 -0.52,-100.47 440.67 80
6 10/02/2022 20:27:03 -0.28,-104.35 -0.58,-105.80 163.97 80
7 10/03/2022 20:10:57 -0.29,-104.36 0.38,-101.26 352.63 80
8 10/05/2022 08:32:45 0.26,-104.35 0.78,-106.53 250.07 80
9 10/06/2022 08:11:21 0.27,-104.32 -0.24,-102.00 264.06 80
10 10/07/2022 20:33:18 -0.24,-104.29 -0.92,-107.32 344.95 80
